Regional Weather Roundup
Issued by NWS Charleston, SC

Current Version | Previous Version | Text Only | Print | Product List | Glossary Off
Versions: 1 2 3 4 5 6 7 8 9 10 11 12 13 14 15 16 17 18 19 20 21 22 23 24 25 26 27 28 29 30 31 32 33 34 35 36 37 38 39 40 41 42 43 44 45 46 47 48 49 50
000 ASUS42 KCHS 200925 RWRCHS REGIONAL WEATHER ROUNDUP NATIONAL WEATHER SERVICE CHARLESTON SC 500 AM EDT MON OCT 20 2014 NOTE: "FAIR" INDICATES FEW OR NO CLOUDS BELOW 12,000 FEET WITH NO SIGNIFICANT WEATHER AND/OR OBSTRUCTIONS TO VISIBILITY. NOT ALL STATIONS ARE QUALITY CONTROLLED BY THE NATIONAL WEATHER SERVICE. USE DATA WITH CAUTION...ESPECIALLY DEWPOINT OBSERVATIONS. SCZ027-030-031-034>040-042>050-201000- ...SOUTH CAROLINA... CITY SKY/WX TMP DP RH WIND PRES REMARKS N CHARLESTON PTCLDY 53 50 89 NE3 30.12S WATERFRONT PRK N/A 63 N/A N/A N6 N/A FORT JOHNSON NOT AVBL JOHNS ISLAND PTSUNNY 55 55 100 CALM 30.11F PINOPOLIS N/A 57 48 72 SE3 30.05S MONCKS CORNER FAIR 48 48 100 CALM 30.12F SUMMERVILLE FAIR 46 46 100 CALM 30.13S BEAUFORT MCAS CLEAR 52 50 93 CALM 30.11F BEAUFORT ARPT PTSUNNY 55 55 100 NE3 30.11S HILTON HEAD IS MOCLDY 55 54 94 CALM 30.12S GEORGETOWN NOT AVBL WALTERBORO SUNNY 45 N/A N/A CALM 30.13S ORANGEBURG CLEAR 47 44 90 CALM 30.13S BARNWELL FAIR 45 43 93 CALM 30.13S AIKEN FAIR 43 43 100 CALM 30.15S MANNING FAIR 45 N/A N/A CALM 30.13S KINGSTREE NOT AVBL COLUMBIA CLEAR 45 42 89 CALM 30.12S SUMTER CLEAR 45 44 97 CALM 30.12S FLORENCE CLEAR 46 43 89 CALM 30.14R MYRTLE BEACH CLEAR 52 45 76 N3 30.14R N MYRTLE BEACH CLEAR 47 44 90 CALM 30.14S $$ GAZ063-065-086>088-099>101-113>116-118-119-134-136>141-150-201000- ...GEORGIA... CITY SKY/WX TMP DP RH WIND PRES REMARKS SAVANNAH ARPT PTCLDY 53 50 89 N5 30.10F HUNTER AAF PTCLDY 55 52 88 CALM 30.08F FORT STEWART CLEAR 48 47 93 CALM 30.08F STATESBORO NOT AVBL SYLVANIA SUNNY 49 48 98 CALM 30.12S CLAXTON FAIR 45 45 100 CALM 30.10F THOMSON CLEAR 46 46 100 CALM 30.16S AUGUSTA-BUSH FOG 43 41 93 CALM 30.13S VSB 1/2 AUGUSTA-DANIEL CLEAR 52 49 89 CALM 30.12S SWAINSBORO FAIR 48 48 100 MISG 30.11F VIDALIA CLEAR 50 50 100 CALM 30.10F ALMA CLEAR 47 46 97 CALM 30.08F FOG WAYCROSS CLEAR 53 53 99 CALM 30.08S JESUP FAIR 52 50 93 CALM 30.09R BRUNSWICK CLEAR 54 52 94 CALM 30.08S SAINT SIMONS CLEAR 54 54 100 CALM 30.07F $$ SCZ027-028-034-036>038-045-046-048>050-GAZ119-141-201000- ...LAKE AND SUPPLEMENTAL COASTAL OBSERVATIONS... STATION/POSITION TIME TEMP WIND PRES WAVE SWELL AIR SEA DIR/SP/G HT/PER HT/PER/DIR (UTC) (F) (DEG/KT/KT) (MB) (FT/S) (FT/S/D) UPR LAKE MARION NOT AVBL WINYAH BAY 0900 51 300/ 3 1020.0S LAKE MURRAY 0800 58 130/ 5/ 6 1019.3S ACE BASIN NERRS 0900 53 CALM 1019.0S FORT PULASKI 0900 67 100/ 3/ 5 1019.2F SAPELO ISLAND NOT AVBL $$ ANZ835-935-AMZ111-154-330-350-352-354-374-450-454-472-201000- ...C-MAN AND BUOY OBSERVATIONS... STATION/POSITION TIME TEMP WIND PRES WAVE SWELL AIR SEA DIR/SP/G HT/PER HT/PER/DIR (UTC) (F) (DEG/KT/KT) (MB) (FT/S) (FT/S/D) FOLLY BEACH CMAN 0900 64 340/ 5/ 8 1020.0F BUOY 41004 0900 70 79 110/ 4/ 8 1019.0F 2/11 2/11 BUOY 41008 0900 71 76 90/ 8/ 10 1018.1F 3/ 7 3/ 70/ 7 5E ST. MARYS GA 0900 77 N/A 3/ 6 2/ 90/11 FRYING PAN BUOY 0900 66 75 120/ 8/ 12 1020.7F 2/ 8 2/100/ 8 BUOY 41025 0900 61 320/ 6/ 12 1020.4R 3/11 3/ 80/11 CAPE LOOKOUT NC 0900 60 10/ 9/ 9 1020.5R BUOY 41002 0804 70 80 40/ 8/ 12 1019.5 5/ 6 5/350/ 6 BUOY 41010 0900 76 81 50/ 14/ 16 1016.6F 5/ 7 3/ 7 BUOY 41012 NOT AVBL ST AUGUSTINE FL 0900 75 100/ 9/ 11 1017.6F CAPERS NEARSHORE 0800 67 70/ 8/ 10 N/A FRIPP NEARSHORE NOT AVBL $$

USA.gov is the U.S. government's official web portal to all federal, state and local government web resources and services.